Challenge Hesbignon

Burchtloop - Brustem (5.00 km)

samedi 15 juin 2019

Le classement original se trouve sur : http://www.challengehesbignon.be/
CHALLENGE HESBIGNON
BURCHTLOOP - BRUSTEM
DISTANCE 5.00 km
samedi 15 juin 2019
 
Place dos Nom Cat. Pl/Cat. temps temps/km Vitesse
1 711 SULEAU THOMAS H 1 00:16:01 03:12 18.73
2 703 MANETTE OLIVIER H 2 00:16:02 03:12 18.71
3 5118 LESIRE MIGUEL H 3 00:16:19 03:16 18.39
4 5149 GEADA DA SILVA NATHAN CH 1 00:16:24 03:17 18.29
5 751 FRISON DAVID H 4 00:16:32 03:18 18.15
6 742 LEROY LOUIS EH 1 00:16:49 03:22 17.84
7 733 CRISTOFOLI MARCO H 5 00:16:59 03:24 17.66
8 712 FADDA ALEXIS CH 2 00:17:11 03:26 17.46
9 5119 RENNESON GRÉGORY H 6 00:17:55 03:35 16.74
10 5136 WILS WOUTER H 7 00:18:14 03:39 16.45
11 724 GRIFNEE JOHAN H 8 00:18:19 03:40 16.38
12 5043 LOX DIETER H 9 00:18:31 03:42 16.20
13 789 MARTINESSE EMMANUEL H 10 00:18:31 03:42 16.20
14 5175 CULOT CHRISTIAN H 11 00:18:59 03:48 15.80
15 773 BONHOMME LAURENT H 12 00:19:09 03:50 15.67
16 5054 PALMS YENS CH 3 00:19:13 03:51 15.61
17 5172 NYS PATRICK H 13 00:19:22 03:52 15.49
18 793 DURANT ROMAIN H 14 00:19:28 03:54 15.41
19 795 COX DIDIER H 15 00:19:29 03:54 15.40
20 5085 VERJANS SARAH F 1 00:19:31 03:54 15.37
21 823 FRANKENNE LINDA F 2 00:19:41 03:56 15.24
22 5154 ICKX PATRICK H 16 00:19:51 03:58 15.11
23 5148 DA SILVA JOHNY PATRICK H 17 00:20:11 04:02 14.86
24 5151 GRAINDORGE MAXENCE EH 2 00:20:16 04:03 14.80
25 5181 MAES TIJS CH 4 00:20:24 04:05 14.71
26 780 DRIESEN LOES F 3 00:20:32 04:06 14.61
27 5122 DRIESEN DIMITRI H 18 00:20:32 04:06 14.61
28 5108 CRETEN KRISTOF H 19 00:20:34 04:07 14.59
29 5059 QUAEYHAEGENS THIJS CH 5 00:20:55 04:11 14.34
30 710 HOFMAN MICHAEL H 20 00:20:57 04:11 14.32
31 5013 CROUGHS MICHAEL H 21 00:20:59 04:12 14.30
32 5014 DAEMEN DAVY H 22 00:21:04 04:13 14.24
33 5121 CLAES KAAT CF 1 00:21:12 04:14 14.15
34 750 FRISON AARON CH 6 00:21:31 04:18 13.94
35 5174 WYNROCX CHRISTIAN H 23 00:21:38 04:20 13.87
36 5083 VANMECHELEN DAAN CH 7 00:21:41 04:20 13.84
37 5164 DIELS NAND CH 8 00:21:54 04:23 13.70
38 5163 DIELS GEERT H 24 00:21:55 04:23 13.69
39 806 DE MEYER BART H 25 00:22:05 04:25 13.58
40 5167 GEYSENBERGH VIC CH 9 00:22:26 04:29 13.37
41 5135 LINDEKENS ANGÉLIQUE F 4 00:22:27 04:29 13.36
42 5146 BARON KAAT CF 2 00:22:31 04:30 13.32
43 5082 VANDORMAEL DIMITRI H 26 00:22:37 04:31 13.26
44 5144 MIGNOLET GLENN H 27 00:22:50 04:34 13.14
45 734 CRISTOFOLI LUCA CH 10 00:22:57 04:35 13.07
46 737 VAN DE WIELE THIBAUT CH 11 00:23:03 04:37 13.02
47 784 AIDAN LAURENT H 28 00:23:05 04:37 13.00
48 5159 DAMS LENNERT CH 12 00:23:09 04:38 12.96
49 5067 TORREMANS STIJN H 29 00:23:13 04:39 12.92
50 5100 LOIX NICK H 30 00:23:32 04:42 12.75
51 5098 KNAEPEN LEANDER CH 13 00:23:32 04:42 12.75
52 5101 BIETS GINO H 31 00:23:35 04:43 12.72
53 5169 LEROY ANTOINE CH 14 00:23:48 04:46 12.61
54 5089 WUYTS HELENE F 5 00:23:51 04:46 12.58
55 727 FOUARGE COLINE F 6 00:23:57 04:47 12.53
56 728 ARTUS MARVIN H 32 00:23:57 04:47 12.53
57 5004 BILLEN BRECHT H 33 00:23:59 04:48 12.51
58 738 GILLAIN MANUEL H 34 00:24:11 04:50 12.41
59 5110 SCHOOFS HILDE F 7 00:24:16 04:51 12.36
60 824 DUSSARD MAYA EF 1 00:24:32 04:54 12.23
61 5065 STASSEN GUNTHER H 35 00:24:33 04:55 12.22
62 5092 VLEKKEN HENDRIK H 36 00:24:36 04:55 12.20
63 762 MICHOTTE EMILIEN CH 15 00:24:37 04:55 12.19
64 718 TANASE ARIELLE F 8 00:24:43 04:57 12.14
65 5155 ICKX MARIE-LAURE CF 3 00:24:46 04:57 12.11
66 5111 COSSEMANS GEERT H 37 00:24:47 04:57 12.10
67 5079 VANDEVELDE STIEN CF 4 00:24:48 04:58 12.10
68 725 HEINE VERONIQUE F 9 00:24:49 04:58 12.09
69 761 RENARD PATRICK H 38 00:24:50 04:58 12.08
70 5001 ARNAUTS LIENE CF 5 00:24:55 04:59 12.04
71 5153 GENNEZ JO H 39 00:24:59 05:00 12.01
72 5112 VAN HOUTTE WILFRIED H 40 00:25:02 05:00 11.98
73 5138 MELLEMANS BRECHT H 41 00:25:04 05:01 11.97
74 5161 DASSY BENOIT H 42 00:25:20 05:04 11.84
75 5056 PHILTJENS JOLINE F 10 00:25:45 05:09 11.65
76 785 AIDAN SIMON EH 3 00:25:54 05:11 11.58
77 752 DOCQUIER MANON EF 2 00:25:58 05:12 11.55
78 5120 CLAES MIEL CH 16 00:25:59 05:12 11.55
79 799 ELIARD MARINE EF 3 00:26:00 05:12 11.54
80 5133 DENIVEL DORIEN F 11 00:26:03 05:13 11.52
81 5139 DUBOIS FLORENCE F 12 00:26:08 05:14 11.48
82 723 KEPPENNE EVELYNE F 13 00:26:14 05:15 11.44
83 5171 HOUBEN NORA F 14 00:26:16 05:15 11.42
84 3010 KEVITCH DJO H 43 00:26:17 05:15 11.41
85 707 VANHEES VICKY F 15 00:26:23 05:17 11.37
86 5123 LOPPEJANS LUKA EF 4 00:26:43 05:21 11.23
87 786 LEKEUX PAULINE CF 6 00:26:44 05:21 11.22
88 5170 BONTINCK ELISE F 16 00:26:52 05:22 11.17
89 753 STRYCKERS LIEVE F 17 00:26:54 05:23 11.15
90 5003 BILLEN ANN F 18 00:26:59 05:24 11.12
91 5178 BRIEN JASPER H 44 00:27:03 05:25 11.09
92 5179 PUT LARISSA F 19 00:27:03 05:25 11.09
93 5051 NICKMANS WOUT CH 17 00:27:09 05:26 11.05
94 5081 VANDEWALLE LIEVE F 20 00:27:19 05:28 10.98
95 5147 GEADA DA SILVA ANA F 21 00:27:21 05:28 10.97
96 5150 MAESEN ISABELLE F 22 00:27:30 05:30 10.91
97 5129 RAMSAK MARIETTE F 23 00:27:36 05:31 10.87
98 5128 WIJNANTS DIRK H 45 00:27:36 05:31 10.87
99 5019 EVERAERTS JESSICA F 24 00:27:41 05:32 10.84
100 5052 NICOLAIJ PHEBE CF 7 00:27:43 05:33 10.82
101 5053 NICOLAIJ SVEN H 46 00:27:43 05:33 10.82
102 5006 BOYEN AGNA F 25 00:27:51 05:34 10.77
103 5141 PETERS CHRISTINA F 26 00:27:53 05:35 10.76
104 5142 VANDENBORNE ELINE F 27 00:27:53 05:35 10.76
105 5096 KNAEPEN KENNY H 47 00:27:57 05:35 10.73
106 5127 WIJNANTS KATRIEN F 28 00:27:58 05:36 10.73
107 715 ERNEST BERT H 48 00:28:09 05:38 10.66
108 5104 DESMET ANNELIES F 29 00:28:11 05:38 10.64
109 5105 JANS LIANNE CF 8 00:28:11 05:38 10.64
110 5134 SWELDENS VALÉRIE F 30 00:28:22 05:40 10.58
111 5125 COPPEJANS ARWEN CF 9 00:28:22 05:40 10.58
112 5094 PETITJEAN NIELS CH 18 00:28:23 05:41 10.57
113 5162 PIRSOUL AURÉLIE F 31 00:28:25 05:41 10.56
114 5186 VANDENPUTTE JULIE EF 5 00:28:38 05:44 10.48
115 5185 LELIEVRE MARIEKE F 32 00:28:38 05:44 10.48
116 5166 MIRISOLA MATTIAS CH 19 00:28:41 05:44 10.46
117 5145 BAMPS DORIEN F 33 00:28:44 05:45 10.44
118 5187 DEMEY JOE H 49 00:28:45 05:45 10.43
119 5106 REGA PATRICIA F 34 00:28:47 05:45 10.42
120 5102 NICKMANS KATLEEN F 35 00:28:47 05:45 10.42
121 5137 LEMMENS LIEN F 36 00:28:49 05:46 10.41
122 5009 CLONEN HARMKE F 37 00:28:49 05:46 10.41
123 5072 VAN THEEMSCHE ERIC H 50 00:28:50 05:46 10.40
124 745 LEMMENS ISABELLE F 38 00:28:51 05:46 10.40
125 744 LEROY JEAN-FRANCOIS H 51 00:28:52 05:46 10.39
126 5024 GEUSSENS MATHIEU CH 20 00:29:00 05:48 10.34
127 5025 GEUSSENS VIKTOR CH 21 00:29:03 05:49 10.33
128 5075 VANDENBORNE ISABEL F 39 00:29:03 05:49 10.33
129 5177 TOELEN ELKE F 40 00:29:16 05:51 10.25
130 5176 CREMERS BART H 52 00:29:16 05:51 10.25
131 5140 SMETS LAURENCE F 41 00:29:17 05:51 10.24
132 716 KIMPLAIRE FREDERIC H 53 00:29:22 05:52 10.22
133 5011 CONINX SARA F 42 00:29:29 05:54 10.18
134 748 DOCQUIER RUDI H 54 00:29:30 05:54 10.17
135 800 ELIARD FABIEN H 55 00:29:30 05:54 10.17
136 768 SMOLDERS JULIE F 43 00:29:31 05:54 10.16
137 5058 POLLÉNUS BEA F 44 00:29:40 05:56 10.11
138 5057 POLLÉNUS ELKE F 45 00:29:40 05:56 10.11
139 5182 MAES LUKAS H 56 00:29:43 05:57 10.10
140 5039 LANGENDRIES AN F 46 00:29:44 05:57 10.09
141 5115 EBRAERT KENDRA CF 10 00:29:44 05:57 10.09
142 5116 EBRAERT JURGEN H 57 00:29:47 05:57 10.07
143 5042 LIBENS KRISTIEN F 47 00:29:49 05:58 10.06
144 5183 CEUNEN GOEDELE F 48 00:29:51 05:58 10.05
145 5076 VANDENRIJT MARIE-JULIE CF 11 00:29:54 05:59 10.03
146 5033 JACQUET LUKAS EH 4 00:29:54 05:59 10.03
147 5132 KELLES GERT H 58 00:30:02 06:00 9.99
148 5114 VAN HOUTTE THOMAS H 59 00:30:02 06:00 9.99
149 5131 MARTENS PIETER H 60 00:30:02 06:00 9.99
150 5117 VANDERMEEREN HEIDI F 49 00:30:05 06:01 9.97
151 5087 VERSCHUEREN CHLOE F 50 00:30:05 06:01 9.97
152 5030 HENDRICX MARGIT F 51 00:30:05 06:01 9.97
153 5130 VANBRABANT JILL F 52 00:30:19 06:04 9.90
154 5113 VAES PAULIEN F 53 00:30:19 06:04 9.90
155 5158 BEX NADIA F 54 00:30:21 06:04 9.88
156 5143 VAN DEN BERGH LAURA F 55 00:30:22 06:04 9.88
157 5091 GROMMEN MARIE-NELLA F 56 00:30:27 06:05 9.85
158 5124 STIPPELMANS HEIDI F 57 00:30:30 06:06 9.84
159 5034 JANSEN ANNICK F 58 00:30:31 06:06 9.83
160 5103 VAN HOUTTE DOOSTJE F 59 00:30:32 06:06 9.83
161 5078 VANDERSMISSEN TINA F 60 00:30:47 06:09 9.75
162 5084 VERDIN PETER H 61 00:30:53 06:11 9.71
163 5188 ROELANDT CARINE F 61 00:31:03 06:13 9.66
164 5070 VAN DE VOORDE LISELOTTE F 62 00:31:05 06:13 9.65
165 5069 VAN DE VOORDE DEBORAH F 63 00:31:06 06:13 9.65
166 5055 PEPE KRISTINE F 64 00:31:08 06:14 9.64
167 5068 UYTTEBROECK BERLINDA F 65 00:31:08 06:14 9.64
168 5012 CRETEN SASKIA F 66 00:31:08 06:14 9.64
169 5097 DRIESMANS STEVEN H 62 00:31:16 06:15 9.59
170 5152 SMETS TINA F 67 00:31:17 06:15 9.59
171 5077 VANDERBRUGGEN NANCY F 68 00:31:20 06:16 9.57
172 713 LEKEU JOEY H 63 00:31:25 06:17 9.55
173 794 CORDY EVA CF 12 00:31:27 06:17 9.54
174 766 OLIVIER VICKY F 69 00:31:28 06:18 9.53
175 5044 MATHIJS WENDY F 70 00:31:29 06:18 9.53
176 5071 VAN HEMELRYCK HELEEN CF 13 00:31:30 06:18 9.52
177 5090 WYLLEMAN BRITTA F 71 00:31:30 06:18 9.52
178 5015 DE CUYPER ANNELIES F 72 00:31:30 06:18 9.52
179 5049 NAGY DAVID H 64 00:31:36 06:19 9.49
180 5099 VANDENBOSCH CAMILLE CF 14 00:31:38 06:20 9.48
181 5168 GEYSENBERGH DAVID H 65 00:31:44 06:21 9.45
182 5165 DIELS RENSKE CF 15 00:31:44 06:21 9.45
183 5088 VINGERHOED NADINE F 73 00:31:46 06:21 9.44
184 5173 REBUSCHI ALLYSON F 74 00:31:58 06:24 9.38
185 5020 FADDA CHRISTOPHE H 66 00:32:00 06:24 9.38
186 5093 PETITJEAN KASPER CH 22 00:32:06 06:25 9.35
187 5095 JEURISSEN ELS F 75 00:32:08 06:26 9.34
188 5126 HIDEG ALEX EH 5 00:32:22 06:28 9.27
189 5022 FOLLONG LEEN F 76 00:32:24 06:29 9.26
190 5080 VANDEWALLE AN CF 16 00:32:25 06:29 9.25
191 5160 SCHURMANS AN F 77 00:32:33 06:31 9.22
192 5041 LEMAIRE FABIENNE F 78 00:32:44 06:33 9.16
193 5016 DE DONCKER LIES F 79 00:32:51 06:34 9.13
194 5180 GEETS TINA F 80 00:32:51 06:34 9.13
195 5040 LATET SONJA CF 17 00:32:59 06:36 9.10
196 5107 REGGERS KIM F 81 00:33:00 06:36 9.09
197 5002 BERTRAND MARLEEN F 82 00:33:11 06:38 9.04
198 5008 CLAES VERA F 83 00:33:11 06:38 9.04
199 5157 SCHOOFS VEERLE F 84 00:33:23 06:41 8.99
200 5017 DE NUL INGRID F 85 00:33:42 06:44 8.90
201 5032 HOEBRECHTS MARIJKE F 86 00:33:59 06:48 8.83
202 5010 COENEGRACHTS KATJA F 87 00:34:51 06:58 8.61
203 5063 RYCKMANS KATRIEN F 88 00:36:40 07:20 8.18
204 5023 FROLOVA JEKATERINA F 89 00:36:45 07:21 8.16
205 5064 SOMERS MONIQUE F 90 00:36:56 07:23 8.12
206 5050 NEVEN ISA F 91 00:36:57 07:23 8.12
207 5184 NODEN JEAN-PAUL H 67 00:36:58 07:24 8.12
208 5109 KEMPENEERS VICTOR CH 23 00:37:44 07:33 7.95
209 5007 BROUWERS DOROTHEE F 92 00:37:44 07:33 7.95
210 5156 DAMS SARAH F 93 00:37:46 07:33 7.94
211 5074 VANDENBORNE DOMINIQUE F 94 00:37:54 07:35 7.92
212 5045 MIEVIS STEFIE F 95 00:38:08 07:38 7.87
213 5066 STRAUVEN NAOMI F 96 00:38:09 07:38 7.86
214 5060 RECK KIRSTEN F 97 00:38:16 07:39 7.84
215 5027 GROSEMANS INGRID F 98 00:39:37 07:55 7.57
216 5048 MULS PATRICK H 68 00:40:33 08:07 7.40
217 5005 BOOGAERTS KRISTEL F 99 00:40:47 08:09 7.36